Home   Weather   Barcelona   Past weeks
Flag for Spain

Past Weather in Barcelona, Barcelona, Spain — Yesterday and Last 2 Weeks

Now
59 °F

Passing clouds.


Feels Like: 58 °F
Forecast: 66 / 56 °F
Wind: 7 mph from Northwest

Location: Barcelona Airport

Current Time: Oct 22, 2019 at 1:29:36 am

Latest Report: Oct 22, 2019 at 1:00 am


Visibility: N/A

Pressure: 30.09 "Hg

Humidity: 88%

Dew Point: 55 °F

Location of BarcelonaLocation

Past Weather in Barcelona — Graph

°F

Barcelona Temperature Yesterday

Maximum temperature yesterday: 64 °F (at 12:00 am)
Minimum temperature yesterday: 59 °F (at 4:00 am)
Average temperature yesterday: 62 °F

High & Low Weather Summary for the Past Weeks

 TemperatureHumidityPressure
High77 °F (Oct 14, 3:00 pm)100% (Oct 14, 9:30 pm)30.21 "Hg (Oct 14, 9:30 pm)
Low54 °F (Oct 16, 5:00 am)36% (Oct 15, 4:30 pm)29.68 "Hg (Oct 20, 4:30 am)
Average68 °F73%30.01 "Hg
* Reported Oct 7 12:00 am — Oct 22 12:30 am, Barcelona. Weather by CustomWeather, © 2019

Note: Actual official high and low records may vary slightly from our data, if they occured in-between our weather recording intervals... More about our weather records

Advertising

Barcelona Weather History for the Previous 24 Hours

Scroll right to see more
 ConditionsComfort  
Time TempWeatherWind HumidityBarometerVisibility
12:30 am
Tue, Oct 22
59 °FPassing clouds.7 mph88%30.09 "HgN/A
12:00 am59 °FPassing clouds.8 mph94%30.09 "HgN/A
11:30 pm
Mon, Oct 21
61 °FPassing clouds.7 mph88%30.09 "HgN/A
11:00 pm61 °FPassing clouds.6 mph83%30.09 "HgN/A
10:30 pm63 °FPassing clouds.5 mph68%30.09 "HgN/A
10:12 pm63 °FPassing clouds.2 mph68%30.09 "HgN/A
9:30 pm64 °FPassing clouds.3 mph60%30.09 "HgN/A
9:00 pm64 °FPassing clouds.1 mph60%30.09 "HgN/A
8:30 pm64 °FPassing clouds.5 mph64%30.09 "HgN/A
8:00 pm64 °FPassing clouds.3 mph68%30.09 "HgN/A
7:30 pm64 °FPassing clouds.3 mph68%30.07 "HgN/A
7:00 pm64 °FScattered clouds.7 mph68%30.07 "HgN/A
6:30 pm64 °FScattered clouds.8 mph68%30.07 "HgN/A
6:00 pm64 °FPassing clouds.8 mph73%30.07 "HgN/A
5:30 pm64 °FLight rain. Scattered clouds.8 mph73%30.07 "HgN/A
5:00 pm64 °FPassing clouds.5 mph73%30.07 "HgN/A
4:30 pm64 °FPassing clouds.No wind73%30.07 "HgN/A
4:00 pm64 °FPassing clouds.2 mph68%30.07 "HgN/A
3:30 pm64 °FPassing clouds.1 mph64%30.07 "HgN/A
3:00 pm64 °FPassing clouds.7 mph64%30.04 "HgN/A
2:30 pm64 °FPassing clouds.9 mph64%30.04 "HgN/A
2:00 pm63 °FPassing clouds.10 mph68%30.04 "HgN/A
1:30 pm61 °FPassing clouds.10 mph68%30.07 "HgN/A
1:00 pm61 °FPassing clouds.10 mph68%30.07 "HgN/A
12:30 pm61 °FPassing clouds.12 mph68%30.04 "HgN/A
12:00 pm61 °FScattered clouds.12 mph68%30.07 "HgN/A
11:30 am61 °FScattered clouds.14 mph68%30.07 "HgN/A
11:00 am61 °FPassing clouds.14 mph68%30.04 "HgN/A
10:30 am61 °FPassing clouds.14 mph68%30.04 "HgN/A
10:00 am59 °FPassing clouds.14 mph72%30.01 "HgN/A
9:30 am59 °FPassing clouds.14 mph72%30.01 "HgN/A
9:00 am59 °FPassing clouds.14 mph68%29.98 "HgN/A
8:30 am59 °FPassing clouds.15 mph72%29.98 "HgN/A
8:00 am59 °FPassing clouds.12 mph72%29.98 "HgN/A
7:30 am59 °FPassing clouds.14 mph77%29.98 "HgN/A
7:00 am59 °FPassing clouds.10 mph72%29.98 "HgN/A
6:30 am59 °FPassing clouds.12 mph72%29.95 "HgN/A
5:30 am59 °FPassing clouds.12 mph77%29.95 "HgN/A
5:00 am59 °FPassing clouds.13 mph77%29.95 "HgN/A
4:30 am59 °FPassing clouds.13 mph77%29.95 "HgN/A
4:00 am59 °FPassing clouds.13 mph77%29.95 "HgN/A
3:30 am61 °FPassing clouds.9 mph77%29.95 "HgN/A
3:00 am61 °FPassing clouds.7 mph77%29.95 "HgN/A
2:00 am63 °FPassing clouds.10 mph73%29.95 "HgN/A
1:30 am63 °FPassing clouds.8 mph77%29.92 "HgN/A
1:00 am63 °FPassing clouds.5 mph77%29.92 "HgN/A
Weather by CustomWeather, © 2019

See weather overview